Regional Weather Roundup
Issued by NWS

Home | Current Version | Previous Version | Graphics & Text | Print | Product List | Glossary Off
Versions: 1 2 3 4 5 6 7 8 9 10 11 12 13 14 15 16 17 18 19 20 21 22 23 24 25 26 27 28 29 30 31 32 33 34 35 36 37 38 39 40 41 42 43 44 45 46 47 48 49 50

000
ASUS43 KMKX 251911
RWRWI

WISCONSIN REGIONAL WEATHER ROUNDUP
NATIONAL WEATHER SERVICE MILWAUKEE/SULLIVAN WI
100 PM CST TUE NOV 25 2014

NOTE: "FAIR" INDICATES FEW OR NO CLOUDS BELOW 12,000 FEET WITH NO
SIGNIFICANT WEATHER AND/OR OBSTRUCTIONS TO VISIBILITY.

WIZ001-002-006>008-014>016-023>028-252000-
NORTHWEST WISCONSIN

CITY           SKY/WX    TMP DP  RH WIND       PRES   REMARKS
SUPERIOR ARPT  FAIR      22  11  60 SW7       30.01F WCI  14
ASHLAND        SUNNY     20  13  74 SW9       30.02F WCI   9
HAYWARD        MOSUNNY   16  11  80 SW6       30.00F WCI   7
SIREN          CLOUDY    18  11  74 SW5       30.03F WCI  11
CUMBERLAND     CLOUDY    19  10  68 SW6       30.01F WCI  11
RICE LAKE      CLOUDY    19  11  71 SW5       30.04F WCI  12
CHETEK         PTSUNNY   19  10  69 SW5       30.04S WCI  12
LADYSMITH      MOSUNNY   20  12  71 SW5       30.03S WCI  14
EAU CLAIRE     SUNNY     18  11  74 SW6       30.05F WCI  10
MENOMONIE      SUNNY     22  11  63 W3        30.05F
NEW RICHMOND   CLOUDY    20  12  71 W3        30.04F
OSCEOLA        CLOUDY    19  12  76 CALM      30.07F
$$

WIZ003>005-009-010-017-018-252000-
NORTH CENTRAL WISCONSIN

CITY           SKY/WX    TMP DP  RH WIND       PRES   REMARKS
MANITOWISH WTR MOSUNNY   17   9  72 W6        29.95R WCI   8
ARBOR VITAE    FLURRIES  19  12  73 W5        29.95R WCI  12
WOODRUFF       FLURRIES  19  12  73 W5        29.95R WCI  12
RHINELANDER    CLOUDY    19  11  70 W9        29.96R WCI   8
EAGLE RIVER    FLURRIES  19   9  66 W7        29.94R WCI  10
LAND O LAKES   FLURRIES  22  12  64 W6        29.94S WCI  15
PHILLIPS       PTSUNNY   17  10  74 SW7       29.98R WCI   8
TOMAHAWK       FLURRIES  19  12  74 CALM      29.98R
MEDFORD        PTSUNNY   19  11  72 W6        29.99S WCI  10
MERRILL        FLURRIES  20  13  73 W9        29.99R WCI  10
$$

WIZ029-030-035-036-043>047-252000-
CENTRAL WISCONSIN

CITY           SKY/WX    TMP DP  RH WIND       PRES   REMARKS
WAUSAU         CLOUDY    18  12  77 W9        30.00R WCI   7
MOSINEE        FLURRIES  18  16  93 NW8       30.01S WCI   7
MARSHFIELD     MOSUNNY   20  11  68 W9        30.01R WCI   9
STEVENS POINT  CLOUDY    19  12  74 W8        30.03R WCI   9
WAUPACA        CLOUDY    24  15  70 W6        30.04R WCI  17
WAUTOMA        CLOUDY    22  15  74 NW8       30.05R WCI  13
WISC RAPIDS    CLOUDY    20  13  74 SW7       30.05R WCI  11
CAMP DOUGLAS   PTSUNNY   21  18  86 W7        30.05S WCI  13
$$

WIZ011>013-019>022-031-037>040-048>050-252000-
NORTHEAST WISCONSIN

CITY           SKY/WX    TMP DP  RH WIND       PRES   REMARKS
ANTIGO         MOSUNNY   19  12  73 NW8       29.96R WCI   9
SHAWANO        CLOUDY    26  18  71 W5        30.01S WCI  20
OCONTO         CLOUDY    25  18  73 W5        30.00S WCI  19
STURGEON BAY   CLOUDY    25  16  68 W10       29.99R WCI  15
GREEN BAY      CLOUDY    24  16  71 W14       30.02R WCI  12
MANITOWOC      CLOUDY    25  20  81 W13       30.02S WCI  14
APPLETON       CLOUDY    21  19  93 W9        30.02S WCI  11
CLINTONVILLE   CLOUDY    25  18  74 NW6       30.02R WCI  18
OSHKOSH        CLOUDY    22  15  75 W8        30.04R WCI  12
$$

WIZ032>034-041-042-053>061-252000-
SOUTHWEST WISCONSIN

CITY           SKY/WX    TMP DP  RH WIND       PRES   REMARKS
LA CROSSE      SUNNY     25  12  58 CALM      30.08S
SPARTA         PTSUNNY   23  15  70 W7        30.07S WCI  15
VIROQUA        SUNNY     21  14  73 W8        30.04S WCI  11
BOSCOBEL       SUNNY     25  15  66 SW8       30.09S WCI  16
PRAIRIE DU CHI SUNNY     22  12  64 W7        30.10S WCI  14
PLATTEVILLE    SUNNY     23  16  77 SW3       30.08S
$$

WIZ056-057-062-063-064-067-068-252000-
SOUTH CENTRAL WISCONSIN

CITY           SKY/WX    TMP DP  RH WIND       PRES   REMARKS
REEDSBURG      CLOUDY    21  15  78 W5        30.05S WCI  14
BARABOO/DELLS  CLOUDY    21  15  76 NW7       30.05R WCI  13
LONE ROCK      PTSUNNY   26  15  63 NW6       30.08S WCI  19
MINERAL POINT  MOSUNNY   25  18  74 W9        30.05F WCI  15
MADISON        CLOUDY    22  16  78 NW6       30.06S WCI  14
MIDDLETON      CLOUDY    25  17  73 W5        30.06S WCI  19
WATERTOWN      CLOUDY    21  17  82 W7        30.06R WCI  13
MONROE         CLOUDY    21  18  86 W10       30.06R WCI  10
JANESVILLE     CLOUDY    25  18  74 W9        30.07S WCI  15
$$

WIZ051-052-058>065-066-070>072-252000-
SOUTHEAST WISCONSIN

CITY           SKY/WX    TMP DP  RH WIND       PRES   REMARKS
MILWAUKEE      PTSUNNY   26  17  68 W12       30.06R WCI  16
WAUKESHA       NOT AVBL
MILWAUKEE/TIMM CLOUDY    25  16  68 W12       30.06R WCI  14
RACINE         CLOUDY    25  18  74 SW9       30.08R WCI  15
BURLINGTON     PTSUNNY   22  16  78 W7        30.06F WCI  14
KENOSHA        PTSUNNY   25  18  74 W12       30.06S WCI  14
FOND DU LAC    CLOUDY    22  15  75 W7        30.04R WCI  13
SHEBOYGAN      CLOUDY    23  16  74 W16       30.03R WCI  10
WEST BEND      CLOUDY    23  18  80 W13       30.04R WCI  11
JUNEAU         CLOUDY    21  16  81 W8        30.06S WCI  11
$$

LSZ147-162-252000-
LAKE SUPERIOR

STATION/POSITION TIME  TEMP    WIND        PRES    WAVE
                       AIR SEA DIR/SP/G            HT/PER
                 (UTC) (F)     (DEG/KT/KT) (MB)    (FT/S)
DEVILS ISLAND    1900   22     250/  9/ 13 1016.9F
PORT WING        1800   20     210/  5/ 11 1016.9F
SAXON HARBOR     1800   19     230/  5/ 10 1016.9R
$$

LMZ867-665-643>646-252000-
LAKE MICHIGAN

STATION/POSITION TIME  TEMP    WIND        PRES    WAVE
                       AIR SEA DIR/SP/G            HT/PER
                 (UTC) (F)     (DEG/KT/KT) (MB)    (FT/S)
CHAMBERS ISLAND  1800   26     290/  7/ 11 1015.2R
N MID LAKE BUOY  1850   29 42  300/ 16/ 19 1014.8R   4/ 5
NORTHPORT PIER   1800   27     300/ 11/ 15 1014.9R
SISTER BAY       1758          320/ 13/ 14   N/A
KEWAUNEE LAKESHO 1800   24     280/ 11/ 15 1014.8R
SHEBOYGAN LAKESH 1900   23 36  290/ 11/ 14 1018.3R
PORT WASHINGTON  1800   25     270/  7/ 12 1017.9S
MILWAUKEE LAKESH 1800   25     260/  9/ 12   N/A
S MID LAKE BUOY  1850   28 42  260/ 14/ 16 1018.6R   4/ 5
KENOSHA   LAKESH 1900   25     280/ 11/ 16 1018.3S
$$

TC  - TEMPERATURE IN CELSIUS
VSB - VISIBILITY IN STATUTE MILES
WCI - WIND CHILL INDEX
HX  - HEAT INDEX



USA.gov is the U.S. government's official web portal to all federal, state and local government web resources and services.